Stations météo

réclame
Mon MeteoGroup
Ouessant, France (7100): Température de l'air & dewpoint: 19.09.2018 10:00:00 - 25.09.2018 10:00:00 (CEST)Ouessant, France (7100): Vitesse du vent & gusts: 19.09.2018 10:00:00 - 25.09.2018 10:00:00 (CEST)Ouessant, France (7100): Direction du vent: 19.09.2018 10:00:00 - 25.09.2018 10:00:00 (CEST)Ouessant, France (7100): reduced air pressure: 19.09.2018 10:00:00 - 25.09.2018 10:00:00 (CEST)Ouessant, France (7100): visibility: 19.09.2018 10:00:00 - 25.09.2018 10:00:00 (CEST)Ouessant, France (7100): Quantités de précipitations: 19.09.2018 10:00:00 - 25.09.2018 10:00:00 (CEST)
Date & Time tt [°C] td [°C] ff [km/h] ff [knt] fx [km/h] fx [knt] dd ppp [hPa] vv [km] rr [mm]
25.09.2018 10:00:00 - - - - - - - - - -
25.09.2018 09:00:00 11,8 8,1 25 14 35 19 ESE 1035,9 - 0,0
25.09.2018 08:00:00 11,1 7,6 26 14 32 18 ESE 1035,7 20 -
25.09.2018 07:00:00 11,4 7,9 23 13 37 20 ESE 1035,9 - 0,0
25.09.2018 06:00:00 11,4 8,4 29 16 41 22 ESE 1035,8 - 0,0
25.09.2018 05:00:00 11,5 8,5 28 15 44 24 ESE 1036,2 20 0,0
25.09.2018 04:00:00 11,9 8,4 37 20 44 24 E 1036,1 - 0,0
25.09.2018 03:00:00 11,7 8,4 28 15 35 19 E 1036,8 - 0,0
25.09.2018 02:00:00 11,5 7,8 25 14 41 22 E 1037,1 - 0,0
25.09.2018 01:00:00 12,1 7,8 35 19 43 23 E 1036,9 - 0,0
25.09.2018 00:00:00 11,9 7,8 31 17 48 26 E 1037,4 - 0,0
24.09.2018 23:00:00 12,6 8,1 35 19 46 25 E 1037,3 - 0,0
24.09.2018 22:00:00 12,6 8,3 30 16 41 22 ENE 1037,3 - 0,0
24.09.2018 21:00:00 12,2 8,7 25 13 37 20 NE 1037,2 - 0,0
24.09.2018 20:00:00 12,9 8,6 26 14 39 21 NNE 1037,1 25 0,0
24.09.2018 19:00:00 14,1 8,3 29 16 38 20 NNE 1036,8 - 0,0
24.09.2018 18:00:00 15,2 8,9 27 14 38 20 NNE 1036,9 - 0,0
24.09.2018 17:00:00 15,8 9,0 25 14 37 20 NE 1037,2 25 0,0
24.09.2018 16:00:00 15,9 9,1 26 14 35 19 NE 1037,5 - 0,0
24.09.2018 15:00:00 16,1 8,3 26 14 34 18 NE 1037,9 - 0,0
24.09.2018 14:00:00 16,0 8,5 24 13 34 18 NE 1038,2 25 0,0
24.09.2018 13:00:00 15,4 8,4 22 12 35 19 NE 1038,5 - 0,0
24.09.2018 12:00:00 14,9 8,4 23 12 33 18 ENE 1038,2 - 0,0
24.09.2018 11:00:00 14,3 8,5 22 12 31 17 NE 1038,1 25 0,0
24.09.2018 10:00:00 13,2 8,1 23 12 29 16 NE 1037,7 - 0,0
24.09.2018 09:00:00 12,0 8,1 22 12 37 20 NNE 1037,3 - 0,0
24.09.2018 08:00:00 11,8 7,5 29 16 39 21 NNE 1036,3 20 0,0
24.09.2018 07:00:00 11,7 7,2 29 16 42 23 NNE 1035,8 - 0,0
24.09.2018 06:00:00 11,9 6,6 32 17 40 21 NNE 1035,7 - 0,0
24.09.2018 05:00:00 12,0 6,3 31 17 44 24 NNE 1035,7 18 0,0
24.09.2018 04:00:00 12,3 6,6 32 17 44 24 NNE 1035,2 - 0,0
24.09.2018 03:00:00 12,4 6,2 32 17 48 26 NNE 1035,2 - 0,0
24.09.2018 02:00:00 12,6 5,3 33 18 50 27 N 1034,6 20 0,0
24.09.2018 01:00:00 12,8 6,4 36 19 53 28 N 1034,1 - 0,0
24.09.2018 00:00:00 12,6 5,5 36 19 53 29 N 1033,5 - 0,0
23.09.2018 23:00:00 12,6 5,5 37 20 54 29 N 1032,8 - 0,0
23.09.2018 22:00:00 12,6 6,4 34 19 54 29 N 1032,0 - 0,0
23.09.2018 21:00:00 12,7 5,8 40 21 53 29 N 1030,7 - 0,0
23.09.2018 20:00:00 13,0 8,1 31 17 51 28 N 1029,6 18 0,0
23.09.2018 19:00:00 13,3 9,7 26 14 50 27 N 1028,5 - 0,0
23.09.2018 18:00:00 13,9 8,7 35 19 55 30 N 1027,4 - 0,0
23.09.2018 17:00:00 13,9 8,9 43 23 68 37 N 1025,8 18 0,0
23.09.2018 16:00:00 13,9 8,9 49 27 75 40 N 1024,7 - 0,0
23.09.2018 15:00:00 14,2 10,6 48 26 69 38 N 1023,4 - 0,0
23.09.2018 14:00:00 13,9 11,4 48 26 68 37 N 1021,6 - 0,0
23.09.2018 13:00:00 13,7 12,8 44 24 66 36 N 1020,4 - 0,0
23.09.2018 12:00:00 13,6 13,4 39 21 61 33 N 1018,9 - 0,2
23.09.2018 11:00:00 13,4 13,4 26 14 51 27 N 1017,1 5 0,2
23.09.2018 10:00:00 17,0 17,0 36 19 54 29 W 1015,0 - 0,0
23.09.2018 09:00:00 17,1 17,1 36 19 54 29 W 1014,4 - 0,0
23.09.2018 08:00:00 17,2 17,2 34 19 54 29 WSW 1013,9 0,5 0,0
23.09.2018 07:00:00 17,3 17,3 36 20 54 29 WSW 1014,5 - 0,2
23.09.2018 06:00:00 17,3 17,3 36 20 58 31 WSW 1014,5 - 0,0
23.09.2018 05:00:00 17,3 17,3 35 19 51 27 WSW 1014,5 0,2 0,2
23.09.2018 04:00:00 17,4 17,4 37 20 54 29 WSW 1014,8 - 0,0
23.09.2018 03:00:00 17,5 17,5 40 21 57 31 WSW 1015,3 - 0,2
23.09.2018 02:00:00 17,5 17,5 37 20 56 30 WSW 1015,4 0,5 0,0
23.09.2018 01:00:00 17,6 17,6 40 22 59 32 WSW 1015,4 - 0,2
23.09.2018 00:00:00 17,7 17,7 36 20 61 33 WSW 1015,1 - 0,2
22.09.2018 23:00:00 17,8 17,8 41 22 61 33 WSW 1015,1 - 0,2
22.09.2018 22:00:00 17,5 17,3 39 21 56 31 WSW 1014,7 - 0,0
22.09.2018 21:00:00 17,8 17,6 42 23 60 33 WSW 1014,4 - 0,0
22.09.2018 20:00:00 17,8 17,6 43 23 64 35 WSW 1014,0 0,2 0,0
22.09.2018 19:00:00 18,0 17,8 44 24 65 35 WSW 1013,6 - 0,0
22.09.2018 18:00:00 17,9 17,7 44 24 71 39 WSW 1013,2 - 0,0
22.09.2018 17:00:00 18,1 17,9 47 25 74 40 WSW 1013,2 0,5 0,2
22.09.2018 16:00:00 18,0 17,8 46 25 71 38 SW 1013,2 - 0,0
22.09.2018 15:00:00 18,0 17,8 48 26 69 38 SW 1013,2 - 0,0
22.09.2018 14:00:00 17,8 17,8 47 25 72 39 SW 1013,1 0,5 0,2
22.09.2018 13:00:00 15,6 15,6 46 25 83 45 S 1013,6 - 1,2
22.09.2018 12:00:00 14,1 13,9 44 24 84 45 SSE 1014,4 - 0,8
22.09.2018 11:00:00 13,9 13,7 39 21 72 39 SSE 1015,6 2,0 0,6
22.09.2018 10:00:00 13,4 13,2 32 17 54 29 SSE 1017,2 - 0,6
22.09.2018 09:00:00 12,4 11,9 23 12 44 24 SSE 1018,3 - 1,2
22.09.2018 08:00:00 13,1 12,0 31 17 43 23 S 1019,1 2,0 0,8
22.09.2018 07:00:00 14,2 11,5 16 9 34 19 SSE 1019,8 - 0,0
22.09.2018 06:00:00 14,1 12,0 14 8 28 15 SSE 1020,2 - 0,2
22.09.2018 05:00:00 13,8 11,3 13 7 16 9 SSW 1021,4 20 0,0
22.09.2018 04:00:00 13,6 10,2 15 8 18 10 SW 1021,9 - 0,0
22.09.2018 03:00:00 13,3 9,9 15 8 18 10 SW 1022,2 - 0,0
22.09.2018 02:00:00 13,6 9,8 16 9 19 10 SW 1022,4 20 0,0
22.09.2018 01:00:00 13,7 9,5 16 9 21 11 WSW 1022,9 - 0,0
22.09.2018 00:00:00 12,7 9,3 13 7 21 11 W 1022,9 - 0,0
21.09.2018 23:00:00 13,4 10,0 16 9 24 13 WNW 1022,9 - 0,0
21.09.2018 22:00:00 13,3 10,1 16 9 22 12 WNW 1022,6 - 0,0
21.09.2018 21:00:00 13,0 9,4 17 9 51 28 WNW 1022,0 - 0,0
21.09.2018 20:00:00 13,8 8,8 22 12 33 18 W 1021,4 18 0,0
21.09.2018 19:00:00 14,9 9,3 23 12 32 18 W 1021,2 - 0,0
21.09.2018 18:00:00 15,1 10,1 26 14 39 21 WNW 1020,6 - 0,0
21.09.2018 17:00:00 15,8 8,0 31 17 45 24 W 1020,4 20 0,0
21.09.2018 16:00:00 16,9 8,6 33 18 44 24 WNW 1020,2 - 0,0
21.09.2018 15:00:00 15,9 8,9 32 17 45 24 W 1019,7 - 0,0
21.09.2018 14:00:00 15,9 9,3 32 17 41 22 WNW 1019,3 - 0,0
21.09.2018 13:00:00 15,0 8,2 28 15 61 33 WNW 1018,5 - 0,0
21.09.2018 12:00:00 15,6 9,7 30 16 50 27 WNW 1017,6 - 0,0
21.09.2018 11:00:00 14,5 8,2 35 19 46 25 WNW 1016,9 20 0,0
21.09.2018 10:00:00 13,9 7,4 36 19 51 28 WNW 1016,0 - 0,0
21.09.2018 09:00:00 13,6 7,8 34 18 49 27 WNW 1015,2 - 0,0
21.09.2018 08:00:00 13,2 8,5 36 20 63 34 NW 1013,7 18 0,0
21.09.2018 07:00:00 13,1 8,2 37 20 60 33 NW 1012,9 - 0,0
21.09.2018 06:00:00 13,2 8,9 41 22 67 36 NW 1011,7 - 0,0
21.09.2018 05:00:00 13,2 10,2 43 23 70 38 NW 1010,9 15 0,0
21.09.2018 04:00:00 13,9 10,1 45 25 75 40 NW 1010,0 - 0,0
21.09.2018 03:00:00 14,5 10,1 53 29 75 40 WNW 1009,0 - 0,0
21.09.2018 02:00:00 14,8 11,8 54 29 75 41 W 1007,8 8 0,0
21.09.2018 01:00:00 15,1 13,0 45 24 74 40 WNW 1006,9 - 0,0
21.09.2018 00:00:00 16,3 16,0 55 30 79 43 WSW 1005,4 - 3,7
20.09.2018 23:00:00 17,4 17,2 55 30 77 42 SSW 1005,2 5 2,4
20.09.2018 22:00:00 17,4 17,1 51 28 73 40 SSW 1006,3 - 1,8
20.09.2018 21:00:00 17,7 16,7 52 28 70 38 SSW 1007,1 - 0,0
20.09.2018 20:00:00 17,8 16,8 49 27 67 36 SSW 1007,7 6 0,0
20.09.2018 19:00:00 18,0 16,8 47 26 66 36 SSW 1008,6 - 0,0
20.09.2018 18:00:00 18,1 16,9 48 26 66 36 SSW 1009,3 - 0,0
20.09.2018 17:00:00 18,5 16,8 44 24 62 34 SSW 1010,1 6 0,0
20.09.2018 16:00:00 18,6 16,9 41 22 64 35 SSW 1011,3 - 0,0
20.09.2018 15:00:00 19,1 17,1 45 25 64 34 SSW 1011,8 - 0,0
20.09.2018 14:00:00 18,8 16,8 45 24 60 32 SSW 1012,3 8 0,0
20.09.2018 13:00:00 19,1 17,1 42 23 56 31 SSW 1012,8 - 0,0
20.09.2018 12:00:00 19,0 17,3 40 22 55 30 SSW 1013,3 - 0,0
20.09.2018 11:00:00 18,0 16,7 36 20 51 28 SSW 1013,7 8 0,0
20.09.2018 10:00:00 18,0 17,2 34 18 45 24 SSW 1014,2 - 0,0
20.09.2018 09:00:00 16,9 16,4 33 18 44 24 SSW 1014,5 - 0,0
20.09.2018 08:00:00 16,6 16,1 27 15 41 22 SSW 1014,5 6 0,0
20.09.2018 07:00:00 17,0 16,5 29 16 48 26 SSW 1014,6 - 0,0
20.09.2018 06:00:00 16,9 16,4 30 16 48 26 SSW 1014,9 - 0,0
20.09.2018 05:00:00 16,9 16,3 32 18 47 26 SW 1015,2 6 0,0
20.09.2018 04:00:00 16,8 16,2 32 18 48 26 SW 1015,6 - 0,0
20.09.2018 03:00:00 16,6 16,0 33 18 49 27 SW 1015,7 - 0,0
20.09.2018 02:00:00 16,8 16,5 30 16 43 23 SW 1016,3 10 0,0
20.09.2018 01:00:00 16,4 16,1 31 17 43 23 SSW 1016,6 - 0,2
20.09.2018 00:00:00 16,3 15,8 31 17 42 23 SSW 1016,8 - 0,0
19.09.2018 23:00:00 16,2 15,7 29 16 39 21 SSW 1016,9 16 0,0
19.09.2018 22:00:00 16,6 16,0 27 14 39 21 SSW 1017,1 - 0,0
19.09.2018 21:00:00 16,6 15,8 25 14 37 20 SSW 1017,0 - 0,0
19.09.2018 20:00:00 17,7 16,2 26 14 36 20 SSW 1016,9 8 0,0
19.09.2018 19:00:00 18,6 15,8 27 15 46 25 SW 1016,9 - 0,0
19.09.2018 18:00:00 20,0 16,4 34 18 50 27 SW 1016,6 - 0,0
19.09.2018 17:00:00 21,0 17,4 34 18 51 28 SW 1016,2 8 0,0
19.09.2018 16:00:00 19,9 16,7 34 18 58 32 SW 1016,5 - 0,0
19.09.2018 15:00:00 21,5 17,7 38 20 58 31 SW 1016,2 - 0,0
19.09.2018 14:00:00 21,3 17,9 36 19 58 31 SSW 1016,1 10 0,0
19.09.2018 13:00:00 20,4 17,0 43 23 60 33 SSW 1015,9 - 0,0
19.09.2018 12:00:00 20,3 17,7 39 21 57 31 SSW 1015,6 - 0,0
19.09.2018 11:00:00 18,8 17,1 37 20 54 29 SW 1015,3 10 0,0
19.09.2018 10:00:00 18,6 17,4 36 19 54 29 SSW 1014,9 - 0,0

tt = Température de l'air
td = dewpoint
ff = Vitesse du vent
fx = gusts
dd = Direction du vent
ppp = reduced air pressure
vv = visibility
rr = Quantités de précipitations

stations d'obs. à proximité